Regional Weather Roundup
Issued by NWS

Home | Current Version | Previous Version | Text Only | Print | Product List | Glossary On
Versions: 1 2 3 4 5 6 7 8 9 10 11 12 13 14 15 16 17 18 19 20 21 22 23 24 25 26 27
000
ASUS45 KREV 231110
RWRNV
NEVADA REGIONAL WEATHER ROUNDUP
NATIONAL WEATHER SERVICE RENO NV
300 AM PST MON JAN 23 2017

NOTE: "FAIR" INDICATES FEW OR NO CLOUDS BELOW 12,000 FEET WITH NO
SIGNIFICANT WEATHER AND/OR OBSTRUCTIONS TO VISIBILITY.

NVZ001-003-004-231200-
WESTERN NEVADA

CITY           SKY/WX    TMP DP  RH WIND       PRES   REMARKS
RENO           CLOUDY    27  26  96 S6        29.59R
CARSON CITY    MOCLDY    28  27  93 CALM      29.61R
MINDEN         SNOW      28  28 100 SE5       29.61R VSB 1/2
PYRAMID LAKE     N/A     36 N/A N/A NW7         N/A
FALLON         CLOUDY    31  29  92 E3        29.58S FOG
LOVELOCK       CLOUDY    30  30 100 S9        29.56R
HAWTHORNE        N/A     34  34 100 CALM      29.59R
$$

NVZ002-CAZ072-073-231200-
NORTHERN AND CENTRAL SIERRA

CITY           SKY/WX    TMP DP  RH WIND       PRES   REMARKS
S. LAKE TAHOE  LGT SNOW  24  21  88 CALM      29.56S FOG
TRUCKEE        LGT SNOW  23  23 100 CALM      29.58R
SQUAW VLY 8000 NOT AVBL
SUSANVILLE     CLEAR     32  23  69 W5        29.59R
MAMMOTH LAKES  SNOW      24  23  99 NW22      29.55R VSB 1/2
BRIDGEPORT     LGT SNOW  24  20  84 CALM      29.52S VSB 3/4
$$

NVZ030-031-036-231200-
NORTHERN NEVADA

CITY           SKY/WX    TMP DP  RH WIND       PRES   REMARKS
ELKO           LGT SNOW  33  30  88 N3        29.45F FOG
WINNEMUCCA     LGT SNOW  30  30 100 W10       29.53R FOG
WENDOVER       CLOUDY    28  27  93 CALM      29.54F
$$

NVZ035-037-231200-
CENTRAL NEVADA

CITY           SKY/WX    TMP DP  RH WIND       PRES   REMARKS
ELY            LGT SNOW  32  29  88 S21G37    29.49F FOG
EUREKA           N/A     31  29  92 W9        29.46F
$$

NVZ013-014-231200-
SOUTH CENTRAL NEVADA

CITY           SKY/WX    TMP DP  RH WIND       PRES   REMARKS
TONOPAH        LGT SNOW  33  32  96 SW22G30   29.53R FOG
$$

NVZ017-020-022-231200-
SOUTHERN NEVADA

CITY           SKY/WX    TMP DP  RH WIND       PRES   REMARKS
LAS VEGAS      MOCLDY    50  41  71 SE13      29.66F
N. LAS VEGAS   LGT RAIN  49  42  77 SE14      29.67F
NELLIS AFB     MOCLDY    50  43  74 SE20G30   29.67F
HENDERSON      LGT RAIN  51  40  65 S28G35    29.68F
MERCURY        CLOUDY    43  40  89 SW12G23   29.66R
$$




USA.gov is the U.S. government's official web portal to all federal, state and local government web resources and services.